Regional Weather Roundup
Issued by NWS

Home | Current Version | Previous Version | Graphics & Text | Print | Product List | Glossary Off
Versions: 1 2 3 4 5 6 7 8 9 10 11 12 13 14 15 16 17 18 19 20 21 22 23 24 25 26 27 28 29 30 31 32 33 34 35 36 37 38 39 40 41 42 43 44 45 46 47 48 49 50

000
ASUS43 KMKX 272221
RWRWI

WISCONSIN REGIONAL WEATHER ROUNDUP
NATIONAL WEATHER SERVICE MILWAUKEE/SULLIVAN WI
500 PM CDT MON MAR 27 2017

NOTE: "FAIR" INDICATES FEW OR NO CLOUDS BELOW 12,000 FEET WITH NO
SIGNIFICANT WEATHER AND/OR OBSTRUCTIONS TO VISIBILITY.

WIZ001-002-006>008-014>016-023>028-272300-
NORTHWEST WISCONSIN

CITY           SKY/WX    TMP DP  RH WIND       PRES   REMARKS
SUPERIOR ARPT  SUNNY     48  33  55 E6        29.98S
ASHLAND        CLOUDY    45  35  68 N8        29.98F
HAYWARD        SUNNY     56  31  38 N7        29.94S
SIREN          SUNNY     57  33  39 NE3       29.94S
CUMBERLAND     CLOUDY    54  30  40 NE6       29.94S
RICE LAKE      CLOUDY    52  37  56 CALM      29.95S
CHETEK         CLOUDY    49  37  63 CALM      29.95S
LADYSMITH      CLOUDY    52  32  47 CALM      29.96F
EAU CLAIRE     CLOUDY    46  37  71 E7        29.95S
MENOMONIE      CLOUDY    49  37  64 NE3       29.96S
NEW RICHMOND   CLOUDY    55  36  50 S5        29.95S
OSCEOLA        CLOUDY    56  34  43 N6        29.98R
$$

WIZ003>005-009-010-017-018-272300-
NORTH CENTRAL WISCONSIN

CITY           SKY/WX    TMP DP  RH WIND       PRES   REMARKS
MANITOWISH WTR CLOUDY    47  33  57 N5        29.94S
ARBOR VITAE    CLOUDY    46  33  62 N6        29.94S
WOODRUFF       CLOUDY    46  33  62 N6        29.94S
RHINELANDER    CLOUDY    46  35  65 NW6       29.94F
EAGLE RIVER    CLOUDY    42  32  67 N6        29.94S
LAND O LAKES   CLOUDY    44  33  66 N6        29.97S
PHILLIPS       CLOUDY    48  33  55 NE8       29.93F
TOMAHAWK       CLOUDY    43  35  72 CALM      29.95S
MEDFORD        CLOUDY    41  37  86 CALM      29.94S
MERRILL        CLOUDY    42  38  87 NE6       29.95S
$$

WIZ029-030-035-036-043>047-272300-
CENTRAL WISCONSIN

CITY           SKY/WX    TMP DP  RH WIND       PRES   REMARKS
WAUSAU         CLOUDY    43  37  79 N5        29.94R
MOSINEE        CLOUDY    43  39  87 N5        29.96S
MARSHFIELD     CLOUDY    43  36  76 N6        29.93F
STEVENS POINT  CLOUDY    41  38  87 N3        29.96S
WAUPACA        CLOUDY    45  40  85 N5        29.96S FOG
WAUTOMA        CLOUDY    46  42  86 N6        29.95R
WISC RAPIDS    CLOUDY    43  40  89 N7        29.96S
CAMP DOUGLAS   CLOUDY    46  43  87 N7        29.94S
$$

WIZ011>013-019>022-031-037>040-048>050-272300-
NORTHEAST WISCONSIN

CITY           SKY/WX    TMP DP  RH WIND       PRES   REMARKS
ANTIGO         CLOUDY    41  38  87 N7        29.95S
SHAWANO        CLOUDY    44  39  82 CALM      29.96S
OCONTO         CLOUDY    38  33  81 CALM      29.97R
STURGEON BAY   CLOUDY    39  35  86 N7        29.98R WCI  34
GREEN BAY      CLOUDY    41  37  86 NE6       29.97R
MANITOWOC      CLOUDY    39  35  86 E5        29.97R
APPLETON       CLOUDY    43  41  93 N7        29.94R
CLINTONVILLE   CLOUDY    43  37  81 N3        29.95S
OSHKOSH        CLOUDY    44  38  79 NE7       29.94S
$$

WIZ032>034-041-042-053>061-272300-
SOUTHWEST WISCONSIN

CITY           SKY/WX    TMP DP  RH WIND       PRES   REMARKS
LA CROSSE      CLOUDY    49  41  74 NW8       29.94F
SPARTA         CLOUDY    46  41  83 N6        29.95S
VIROQUA        CLOUDY    46  44  95 NW6       29.93S
BOSCOBEL       CLOUDY    52  43  71 CALM      29.93F
PRAIRIE DU CHI CLOUDY    47  45  94 CALM      29.93S FOG
PLATTEVILLE    CLOUDY    48  46  92 N5        29.92S
$$

WIZ056-057-062-063-064-067-068-272300-
SOUTH CENTRAL WISCONSIN

CITY           SKY/WX    TMP DP  RH WIND       PRES   REMARKS
REEDSBURG      CLOUDY    47  45  91 CALM      29.93S
BARABOO/DELLS  CLOUDY    47  42  82 N5        29.93S
LONE ROCK      CLOUDY    49  43  80 CALM      29.93F HAZE
MINERAL POINT  CLOUDY    48  45  87 N3        29.92S
MADISON        CLOUDY    48  42  80 N6        29.92S
MIDDLETON      CLOUDY    48  44  86 N3        29.93S
WATERTOWN      CLOUDY    48  43  84 N3        29.92S
MONROE         CLOUDY    48  43  81 N3        29.92R
JANESVILLE     CLOUDY    52  45  76 NE8       29.91S
$$

WIZ051-052-058>065-066-070>072-272300-
SOUTHEAST WISCONSIN

CITY           SKY/WX    TMP DP  RH WIND       PRES   REMARKS
MILWAUKEE      CLOUDY    44  37  76 E6        29.93F
WAUKESHA       CLOUDY    46  41  81 CALM      29.93
MILWAUKEE/TIMM CLOUDY    45  37  76 E6        29.94S
RACINE         CLOUDY    43  37  79 NE5       29.95S
KENOSHA        CLOUDY    44  39  82 E7        29.92F
FOND DU LAC    CLOUDY    45  38  76 N10       29.94S
SHEBOYGAN      CLOUDY    39  36  89 E8        29.95S WCI  33
WEST BEND      CLOUDY    45  43  93 E3        29.93R
JUNEAU         CLOUDY    46  42  86 CALM      29.94R
$$

LSZ147-162-272300-
LAKE SUPERIOR

STATION/POSITION TIME  TEMP    WIND        PRES    WAVE
                       AIR SEA DIR/SP/G            HT/PER
                 (UTC) (F)     (DEG/KT/KT) (MB)    (FT/S)
DEVILS ISLAND    2200   39     280/  2/  2 1016.2S
PORT WING        2130   42      CALM  /  1 1015.6S
SAXON HARBOR     2140   36     340/  2/  3 1015.6S
$$

LMZ867-665-643>646-272300-
LAKE MICHIGAN

STATION/POSITION TIME  TEMP    WIND        PRES    WAVE
                       AIR SEA DIR/SP/G            HT/PER
                 (UTC) (F)     (DEG/KT/KT) (MB)    (FT/S)
CHAMBERS ISLAND  2140   38        CALM     1014.6S
NORTHPORT PIER   2140   38        CALM     1014.6S
KEWAUNEE LAKESHO 2154   37      CALM  /  1 1014.4R
SHEBOYGAN LAKESH 2200   36      40/  6/  7 1014.7R
PORT WASHINGTON  2140   40      40/  2/  3 1014.9S
MILWAUKEE LAKESH 2200   38      50/  2/  2   N/A
KENOSHA   LAKESH 2200   39      20/  2/  3 1013.9
$$

TC  - TEMPERATURE IN CELSIUS
VSB - VISIBILITY IN STATUTE MILES
WCI - WIND CHILL INDEX
HX  - HEAT INDEX





USA.gov is the U.S. government's official web portal to all federal, state and local government web resources and services.